Location: *
(60.1759°S, 155.0663°W)
Time: 16:15:06
(UTC+00:00)

CZ-4B R/B - Pass Details

Date: 17 September 2019
Orbit: 808 x 882 km, 99.1° (Epoch: 19 October)

Event Time Altitude Azimuth Distance (km) Brightness Sun altitude
Rises 14:42:20 0° 10° (N) 3,340 6.2 -13.2°
Reaches altitude 10° 14:44:41 10° 7° (N) 2,413 5.5 -12.9°
Maximum altitude 14:49:59 65° 285° (WNW) 909 3.1 -12.3°
Drops below altitude 10° 14:55:22 10° 202° (SSW) 2,449 5.6 -11.7°
Sets 14:57:46 0° 199° (SSW) 3,394 6.3 -11.4°
